Leesburg, FL

8:14 AM EST on December 08, 2019 (GMT -0500)
Leesburg Regional

Weather History for KLEE - October, 2019

Change the Weather History Date:

Sunday, October 20, 2019

  Actual Average Record
Temperature  
Mean Temperature 80 °F -  
Max Temperature 87 °F 82 °F 93 °F (2006)
Min Temperature 72 °F 60 °F 45 °F (1967)
Cooling Degree Days 15    
Growing Degree Days 30 (Base 50)    
Moisture  
Dew Point 71 °F    
Average Humidity 78    
Maximum Humidity 91    
Minimum Humidity 55    
Precipitation  
Precipitation 0.00 in - - ()
Sea Level Pressure  
Sea Level Pressure 29.90 in    
Wind  
Wind Speed 7 mph (WSW)    
Max Wind Speed 12 mph    
Max Gust Speed 16 mph    
Visibility 10 miles    
Events      
Averages and records for this station are not official NWS values.
T = Trace of Precipitation, MM = Missing Value Source: NWS Daily Summary

Daily Weather History Graph

Daily Weather History Graph

Search for Another Location

Airport or City:

Astronomy

Oct. 20, 2019 Rise Set
Actual Time 7:31 AM EDT 6:52 PM EDT
Civil Twilight 7:07 AM EDT 7:16 PM EDT
Nautical Twilight 6:39 AM EDT 7:44 PM EDT
Astronomical Twilight 6:12 AM EDT 8:11 PM EDT
Moon No Moon Rise 1:39 PM EDT (10/20)
Length of Visible Light 12h 09m
Length of Day
11h 21m
Waning Gibbous, 59% of the Moon is Illuminated
Oct 20
Waning Gibbous
Oct 21
Last Quarter
Oct 27
New
Nov 4
First Quarter
Nov 12
Full

Hourly Weather History & Observations

Time (EDT) Temp. Heat Index Dew Point Humidity Pressure Visibility Wind Dir Wind Speed Gust Speed Precip Events Conditions
12:53 AM 78.1 °F - 75.0 °F 90% 29.82 in 10.0 mi South 8.1 mph - N/A   Partly Cloudy
1:13 AM 78.1 °F - 75.0 °F 90% 29.82 in 10.0 mi SSW 8.1 mph - N/A   Mostly Cloudy
1:21 AM 78.1 °F - 75.0 °F 90% 29.82 in 10.0 mi SSW 9.2 mph - N/A   Mostly Cloudy
1:53 AM 78.1 °F - 75.0 °F 90% 29.82 in 10.0 mi South 9.2 mph - 0.00 in   Mostly Cloudy
1:59 AM 78.1 °F - 75.0 °F 90% 29.82 in 10.0 mi SSW 6.9 mph - N/A   Mostly Cloudy
2:31 AM 78.1 °F - 73.9 °F 87% 29.82 in 10.0 mi SSW 9.2 mph - N/A   Mostly Cloudy
2:53 AM 77.0 °F - 73.9 °F 90% 29.82 in 10.0 mi SSW 11.5 mph - N/A   Partly Cloudy
3:53 AM 77.0 °F - 73.0 °F 88% 29.82 in 10.0 mi SSW 8.1 mph - N/A   Clear
4:53 AM 75.9 °F - 73.0 °F 91% 29.82 in 10.0 mi SSW 8.1 mph - N/A   Clear
5:53 AM 75.9 °F - 72.0 °F 87% 29.84 in 10.0 mi SW 6.9 mph - N/A   Clear
6:53 AM 75.9 °F - 72.0 °F 87% 29.86 in 10.0 mi WSW 5.8 mph - N/A   Clear
7:53 AM 75.9 °F - 72.0 °F 87% 29.88 in 10.0 mi WSW 6.9 mph - N/A   Scattered Clouds
8:53 AM 77.0 °F - 72.0 °F 84% 29.91 in 10.0 mi Variable 4.6 mph - N/A   Scattered Clouds
9:27 AM 78.1 °F - 73.0 °F 84% 29.93 in 10.0 mi Variable 4.6 mph - N/A   Mostly Cloudy
9:53 AM 78.1 °F - 73.0 °F 84% 29.94 in 10.0 mi WNW 5.8 mph - N/A   Overcast
10:19 AM 80.1 °F 84.2 °F 73.0 °F 79% 29.95 in 10.0 mi NW 6.9 mph - N/A   Overcast
10:53 AM 79.0 °F - 72.0 °F 79% 29.95 in 10.0 mi WNW 4.6 mph - N/A   Overcast
11:53 AM 81.0 °F 84.9 °F 71.1 °F 72% 29.96 in 10.0 mi West 5.8 mph - N/A   Mostly Cloudy
12:53 PM 84.0 °F 88.4 °F 70.0 °F 63% 29.95 in 10.0 mi West 9.2 mph - N/A   Clear
1:53 PM 84.9 °F 89.4 °F 70.0 °F 61% 29.93 in 10.0 mi WNW 11.5 mph - N/A   Clear
2:53 PM 87.1 °F 92.0 °F 70.0 °F 57% 29.92 in 10.0 mi West 8.1 mph - N/A   Partly Cloudy
3:05 PM 86.0 °F 90.1 °F 69.1 °F 57% 29.93 in 10.0 mi West 9.2 mph 16.1 mph N/A   Partly Cloudy
3:53 PM 87.1 °F 91.3 °F 69.1 °F 55% 29.92 in 10.0 mi West 8.1 mph - N/A   Clear
4:53 PM 86.0 °F 89.4 °F 68.0 °F 55% 29.92 in 10.0 mi West 9.2 mph - N/A   Clear
5:53 PM 84.0 °F 87.0 °F 68.0 °F 58% 29.93 in 10.0 mi WNW 6.9 mph - N/A   Clear
6:53 PM 81.0 °F 83.8 °F 68.0 °F 65% 29.94 in 10.0 mi West 3.5 mph - N/A   Clear
7:53 PM 77.0 °F - 68.0 °F 74% 29.95 in 10.0 mi WSW 3.5 mph - N/A   Clear
8:53 PM 77.0 °F - 68.0 °F 74% 29.96 in 10.0 mi Calm Calm - N/A   Clear
9:53 PM 75.0 °F - 68.0 °F 79% 29.97 in 10.0 mi West 3.5 mph - N/A   Clear
10:53 PM 73.9 °F - 66.0 °F 76% 29.98 in 10.0 mi Calm Calm - N/A   Clear
11:53 PM 72.0 °F - 66.9 °F 84% 29.98 in 10.0 mi WNW 3.5 mph - N/A   Clear